Location: Lane
(33.5226°N, 79.8788°W)
Time: 02:15:54
(UTC+00:00)

Explorer 7 - Pass Details

Date: 09 October 2022
Orbit: 481 x 665 km, 50.3° (Epoch: 01 December)

Event Time Altitude Azimuth Distance (km) Brightness Sun altitude
Rises 13:07:13 0° 238° (WSW) 2,928 10.2 20.7°
Reaches altitude 10° 13:09:32 10° 243° (WSW) 2,042 9.4 21.2°
Maximum altitude 13:14:12 57° 322° (NW) 777 7.6 22.1°
Drops below altitude 10° 13:18:58 10° 41° (NE) 2,089 10.0 23.0°
Sets 13:21:23 0° 46° (NE) 3,002 10.8 23.4°
